Location: downtown San Diego
(32.7310°N, 117.1990°W)
Time: 08:32:30
(UTC-08:00)

Terra - Pass Details

Date: 19 May 2017
Orbit: 702 x 703 km, 98.2° (Epoch: 23 November)

Event Time Altitude Azimuth Distance (km) Brightness Sun altitude
Exits shadow 23:18:11 33° 320° (NW) 1,172 3.4 -33.3°
Drops below altitude 10° 23:20:58 10° 338° (NNW) 2,173 5.2 -33.5°
Sets 23:23:17 0° 342° (NNW) 3,095 6.2 -33.7°
